1493881200.82,4002,13.81,73600.0,3.71,1.33,1.43,0,*49
1493881202.07,4003,13.75,73596.3,3.71,1.29,1.43,0,*43
1493881203.3,4004,13.75,73600.0,3.73,1.33,1.43,0,*4D
1493881204.52,4005,13.75,73602.5,3.71,1.29,1.41,0,*47
1493881205.74,4006,13.81,73600.3,3.71,1.29,1.41,0,*44
1493881206.96,4007,13.75,73602.0,3.71,1.05,1.17,0,*48
1493881208.19,4008,13.81,73600.3,3.71,1.05,1.17,0,*47
1493881209.44,4009,13.75,73598.8,3.71,1.17,1.33,0,*43
1493881210.69,4010,13.75,73600.5,3.71,1.17,1.29,0,*40
1493881211.92,4011,13.75,73600.3,3.73,1.17,1.37,0,*4C
1493881213.14,4012,13.81,73606.3,3.71,1.29,1.41,0,*41
1493881214.4,4013,13.75,73604.0,3.71,1.17,1.33,0,*48
1493881215.66,4014,13.75,73606.3,3.71,1.21,1.33,0,*4A
1493881216.91,4015,13.81,73606.3,3.71,1.21,1.33,0,*4B
1493881218.17,4016,13.75,73606.5,3.71,1.21,1.29,0,*43
1493881219.39,4017,13.75,73606.0,3.71,1.21,1.41,0,*4C
1493881220.64,4018,13.81,73608.0,3.71,1.09,1.21,0,*4F
1493881221.9,4019,13.81,73606.3,3.71,1.17,1.21,0,*41
1493881223.15,4020,13.75,73606.0,3.71,1.17,1.29,0,*43
1493881224.38,4021,13.81,73608.8,3.73,1.25,1.33,0,*4A
1493881225.63,4022,13.75,73604.3,3.71,1.17,1.29,0,*41
1493881226.85,4023,13.81,73608.3,3.73,1.51,1.25,0,*4C
1493881228.07,4024,13.75,73606.3,3.71,1.41,1.21,0,*4C
1493881229.31,4025,13.81,73608.8,3.73,1.37,1.21,0,*4E
1493881230.56,4026,13.81,73610.8,3.71,1.29,1.17,0,*45
1493881231.79,4027,13.81,73608.3,3.71,1.05,1.21,0,*4F
1493881233.04,4028,13.81,73608.8,3.71,1.09,1.17,0,*49
1493881234.27,4029,13.81,73610.3,3.73,1.37,1.21,0,*42
1493881235.52,4030,13.81,73610.5,3.71,1.29,0.95,0,*79
1493881236.72,4031,13.81,73606.8,3.73,1.29,0.97,0,*78
1493881237.96,4032,13.81,73608.3,3.71,1.21,0.95,0,*73
1493881239.22,4033,13.75,73608.5,3.67,1.13,0.83,0,*73
1493881240.44,4034,13.81,73610.8,3.67,1.01,0.79,0,*72
1493881241.7,4035,13.81,73608.3,3.67,1.13,0.83,0,*75
1493881242.93,4036,13.81,73610.5,3.65,1.13,0.91,0,*77
1493881244.14,4037,13.81,73608.8,3.65,1.25,1.01,0,*4B
1493881245.39,4038,13.81,73608.0,3.67,1.29,0.95,0,*76
1493881246.59,4039,13.81,73612.5,3.65,1.25,1.01,0,*45
1493881247.81,4040,13.81,73612.3,3.67,1.25,1.05,0,*4D
1493881249.02,4041,13.81,73610.8,3.65,1.29,1.05,0,*42
1493881250.26,4042,13.81,73612.0,3.65,1.13,1.13,0,*4F
1493881251.49,4043,13.81,73610.0,3.65,1.13,1.17,0,*4A
1493881252.71,4044,13.81,73608.3,3.65,0.91,0.95,0,*4D
1493881253.93,4045,13.81,73612.8,3.65,0.71,0.83,0,*45
1493881255.14,4046,13.81,73610.8,3.65,0.71,0.83,0,*46
1493881256.35,4047,13.81,73610.5,3.63,0.75,0.87,0,*41
1493881257.54,4048,13.81,73610.3,3.63,0.87,0.97,0,*42
1493881258.73,4049,13.81,73610.5,3.63,0.97,1.13,0,*7F
1493881259.93,4050,13.81,73610.8,3.63,1.01,1.21,0,*48
1493881261.13,4051,13.81,73610.3,3.63,1.01,1.21,0,*49
1493881262.36,4052,13.81,73610.0,3.63,1.09,1.25,0,*46
1493881263.56,4053,13.81,73610.8,3.63,1.01,1.09,0,*41
1493881264.79,4054,13.81,73614.3,3.61,0.75,0.91,0,*46
1493881266.01,4055,13.81,73610.5,3.63,0.79,0.79,0,*4F
1493881267.22,4056,13.81,73610.8,3.63,0.79,0.87,0,*4D
1493881268.44,4057,13.81,73608.8,3.61,0.91,1.01,0,*77
1493881269.67,4058,13.81,73608.8,3.61,0.97,1.21,0,*7C
1493881270.89,4059,13.81,73608.8,3.63,1.13,1.25,0,*46
1493881272.12,4060,13.81,73610.3,3.63,1.21,1.33,0,*4A
1493881273.32,4061,13.81,73608.5,3.63,1.21,1.41,0,*4E
1493881274.57,4062,13.81,73610.0,3.61,1.25,1.37,0,*4A
1493881275.81,4063,13.81,73610.3,3.63,1.21,1.37,0,*4D
1493881277.0,4064,13.81,73608.8,3.63,1.25,1.41,0,*4F
1493881278.22,4065,13.75,73604.8,3.63,1.25,1.37,0,*4F
1493881279.45,4066,13.81,73612.3,3.63,1.25,1.37,0,*4C
1493881280.68,4067,13.81,73610.3,3.65,1.29,1.43,0,*44
1493881281.87,4068,13.81,73610.0,3.65,1.25,1.41,0,*45
1493881283.13,4069,13.81,73608.8,3.67,1.29,1.43,0,*48
1493881284.35,4070,13.81,73606.3,3.65,1.37,1.43,0,*4D
1493881285.57,4071,13.81,73610.8,3.67,1.41,1.43,0,*4F
1493881286.8,4072,13.81,73614.8,3.65,1.37,1.43,0,*4F
1493881288.03,4073,13.81,73608.8,3.65,1.25,1.29,0,*41
1493881289.26,4074,13.81,73608.8,3.65,1.25,1.43,0,*4A
1493881290.51,4075,13.75,73608.0,3.67,1.29,1.43,0,*45
1493881291.76,4076,13.81,73614.8,3.67,1.29,1.43,0,*46
1493881293.01,4077,13.81,73610.5,3.67,1.37,1.43,0,*48
1493881294.27,4078,13.81,73612.3,3.67,1.37,1.51,0,*44
1493881295.53,4079,13.81,73612.0,3.67,1.37,1.51,0,*45
1493881296.75,4080,13.81,73606.3,3.67,1.29,1.41,0,*4D
1493881298.0,4081,13.81,73610.5,3.67,1.25,1.29,0,*4E
1493881299.26,4082,13.81,73608.5,3.67,1.37,1.43,0,*42
1493881300.48,4083,13.81,73610.3,3.67,1.41,1.43,0,*42
1493881301.7,4084,13.81,73608.0,3.67,1.41,1.51,0,*46
1493881302.94,4085,13.81,73608.3,3.71,1.43,1.55,0,*46
1493881304.18,4086,13.81,73610.3,3.71,1.43,1.55,0,*45
1493881305.4,4087,13.81,73608.5,3.73,1.47,1.59,0,*4E
1493881306.62,4088,13.81,73608.0,3.73,1.37,1.59,0,*46
1493881307.84,4089,13.81,73610.5,3.73,1.43,1.51,0,*4C
1493881309.09,4090,13.81,73612.5,3.71,1.33,1.47,0,*46
1493881310.32,4091,13.81,73616.3,3.73,1.37,1.51,0,*46
1493881311.55,4092,13.81,73612.3,3.73,1.37,1.47,0,*42
1493881312.77,4093,13.81,73610.3,3.73,1.43,1.47,0,*40
1493881314.0,4094,13.81,73612.0,3.73,1.37,1.51,0,*43
1493881315.21,4095,13.81,73612.5,3.73,1.43,1.51,0,*41
1493881316.43,4096,13.81,73612.3,3.73,1.43,1.51,0,*42
1493881317.67,4097,13.81,73612.5,3.75,1.43,1.59,0,*4D
1493881318.92,4098,13.81,73612.3,3.75,1.37,1.51,0,*49
1493881320.13,4099,13.81,73614.5,3.77,1.47,1.63,0,*4C
1493881321.35,4100,13.81,73612.0,3.77,1.47,1.55,0,*48
1493881322.54,4101,13.81,73612.0,3.77,1.41,1.51,0,*4B
1493881323.76,4102,13.81,73612.0,3.77,1.47,1.55,0,*4A
1493881324.98,4103,13.81,73614.5,3.77,1.29,1.47,0,*40
1493881326.23,4104,13.81,73612.5,3.75,1.25,1.51,0,*4E
1493881327.42,4105,13.81,73616.3,3.77,1.41,1.55,0,*4B
1493881328.61,4106,13.81,73614.5,3.77,1.41,1.55,0,*48
1493881329.83,4107,13.81,73612.8,3.77,1.55,1.67,0,*4D
1493881331.04,4108,13.81,73612.3,3.77,1.55,1.75,0,*41
1493881332.26,4109,13.81,73616.3,3.79,1.55,1.75,0,*4E
1493881333.48,4110,13.81,73616.5,3.79,1.63,1.79,0,*4F
1493881334.68,4111,13.81,73612.3,3.81,1.67,1.83,0,*48
1493881335.9,4112,13.81,73612.3,3.79,1.63,1.83,0,*48
1493881337.1,4113,13.81,73612.0,3.81,1.67,1.83,0,*4A
1493881338.32,4114,13.81,73610.8,3.79,1.67,1.79,0,*4F
1493881339.53,4115,13.81,73608.5,3.81,1.67,1.89,0,*46
1493881340.73,4116,13.81,73610.5,3.85,1.63,1.83,0,*4F
1493881341.95,4117,13.81,73610.3,3.83,1.75,1.85,0,*49
1493881343.16,4118,13.81,73614.5,3.83,1.83,1.97,0,*4C
1493881344.38,4119,13.81,73612.5,3.85,1.71,1.93,0,*42
1493881345.6,4120,13.81,73612.3,3.85,1.71,1.93,0,*48
1493881346.81,4121,13.81,73614.0,3.85,1.71,1.93,0,*49
1493881348.0,4122,13.81,73610.0,3.85,1.83,1.93,0,*47
1493881349.22,4123,13.81,73612.3,3.87,1.79,2.01,0,*49
1493881350.42,4124,13.81,73608.8,3.89,1.79,1.97,0,*4C
1493881351.64,4125,13.81,73608.8,3.89,1.85,1.97,0,*4E
1493881352.84,4126,13.81,73610.0,3.89,1.79,1.97,0,*4E
1493881354.03,4127,13.81,73612.8,3.89,1.79,1.97,0,*4F
1493881355.23,4128,13.81,73616.5,3.89,1.75,1.97,0,*4C
1493881356.47,4129,13.81,73614.3,3.95,1.85,1.93,0,*4B
1493881357.69,4130,13.81,73612.0,3.93,1.55,1.67,0,*43
1493881358.9,4131,13.81,73612.0,3.93,1.63,1.67,0,*47
1493881360.11,4132,13.81,73612.0,3.93,1.63,1.71,0,*43
1493881361.33,4133,13.81,73612.8,3.95,1.83,1.93,0,*46
1493881362.54,4134,13.81,73614.5,3.95,1.83,1.97,0,*45
1493881363.73,4135,13.81,73612.5,3.93,1.79,1.93,0,*43
1493881364.94,4136,13.81,73612.8,3.95,1.83,1.97,0,*47
1493881366.13,4137,13.81,73616.5,3.93,1.79,1.93,0,*41
1493881367.34,4138,13.81,73612.8,3.95,1.83,1.93,0,*4D
1493881368.57,4139,13.81,73616.0,3.97,1.83,1.93,0,*4E
1493881369.79,4140,13.81,73614.5,3.99,1.89,2.01,0,*4C
1493881371.01,4141,13.81,73612.5,3.97,1.83,2.05,0,*4D
1493881372.24,4142,13.81,73612.8,3.99,1.85,2.01,0,*42
1493881373.47,4143,13.81,73614.3,3.99,1.85,2.01,0,*43
1493881374.73,4144,13.81,73618.5,4.01,1.85,2.01,0,*42
1493881375.97,4145,13.81,73616.8,4.01,1.89,2.01,0,*4F
1493881377.22,4146,13.81,73614.5,4.01,1.89,2.01,0,*4C
1493881378.43,4147,13.81,73612.3,4.03,1.89,2.05,0,*4B
1493881379.65,4148,13.81,73616.8,4.03,1.89,2.01,0,*40
1493881380.87,4149,13.81,73612.5,4.03,1.93,2.05,0,*4E
1493881382.09,4150,13.81,73612.0,4.03,1.89,2.01,0,*49
1493881383.31,4151,13.81,73614.3,4.03,1.89,2.05,0,*4C
1493881384.52,4152,13.81,73614.3,4.03,1.89,2.05,0,*4F
1493881385.74,4153,13.81,73612.5,4.03,1.89,2.01,0,*4A
1493881386.96,4154,13.81,73614.8,4.07,1.93,2.05,0,*46
1493881388.18,4155,13.81,73612.8,4.07,1.93,1.97,0,*4F
1493881389.43,4156,13.81,73616.0,4.05,1.93,1.97,0,*4E
1493881390.68,4157,13.81,73616.5,4.05,1.93,2.05,0,*47
1493881391.93,4158,13.81,73614.5,4.09,1.97,2.13,0,*47
1493881393.15,4159,13.81,73612.5,4.09,1.83,1.97,0,*4C
1493881394.4,4160,13.81,73614.3,4.09,1.89,1.97,0,*4C
1493881395.62,4161,13.81,73616.0,4.09,1.83,1.97,0,*47
1493881396.86,4162,13.81,73614.8,4.09,1.89,1.97,0,*4E
1493881398.09,4163,13.81,73614.5,4.09,1.71,1.83,0,*4D
1493881399.28,4164,13.81,73614.5,4.11,1.83,1.89,0,*44
1493881400.52,4165,13.81,73612.0,4.09,1.89,2.01,0,*45
1493881401.77,4166,13.81,73612.5,4.09,1.85,1.97,0,*46
1493881402.99,4167,13.81,73612.0,4.11,1.89,1.97,0,*42
1493881404.21,4168,13.81,73608.8,4.11,1.85,1.97,0,*41
1493881405.43,4169,13.81,73608.3,4.11,1.85,1.97,0,*40
1493881406.63,4170,13.81,73610.5,4.11,1.83,1.97,0,*4E
1493881407.85,4171,13.81,73608.0,4.13,1.79,1.93,0,*4C
1493881409.09,4172,13.81,73608.8,4.13,1.89,1.93,0,*40
1493881410.31,4173,13.81,73610.0,4.13,1.63,1.75,0,*4D
1493881411.54,4174,13.81,73610.0,4.13,1.75,1.85,0,*42
1493881412.79,4175,13.81,73610.0,4.13,1.63,1.85,0,*44
1493881414.04,4176,13.81,73610.5,4.13,1.63,1.85,0,*47
1493881415.28,4177,13.81,73610.5,4.17,1.89,1.97,0,*45
1493881416.5,4178,13.81,73610.8,4.17,1.83,1.97,0,*40
1493881417.72,4179,13.81,73608.5,4.13,1.79,1.93,0,*44
1493881418.97,4180,13.81,73610.0,4.13,1.85,1.93,0,*41
1493881420.21,4181,13.81,73612.3,4.13,1.67,1.85,0,*4B
1493881421.44,4182,13.81,73612.0,4.17,1.79,1.97,0,*40
1493881422.66,4183,13.81,73608.3,4.17,1.79,1.93,0,*45
1493881423.88,4184,13.81,73612.0,4.17,1.79,1.93,0,*42
1493881425.1,4185,13.81,73612.3,4.19,1.71,1.93,0,*45
1493881426.32,4186,13.81,73614.5,4.19,1.71,1.93,0,*46
1493881427.54,4187,13.81,73612.5,4.21,1.83,2.01,0,*49
1493881428.73,4188,13.81,73616.0,4.19,1.83,2.01,0,*4D
1493881429.94,4189,13.81,73614.0,4.21,1.83,1.97,0,*4B
1493881431.16,4190,13.81,73614.0,4.21,1.83,1.93,0,*47
1493881432.38,4191,13.81,73612.8,4.21,1.75,1.93,0,*4F
1493881433.57,4192,13.81,73612.5,4.19,1.67,1.83,0,*45
1493881434.79,4193,13.81,73614.3,4.21,1.75,1.93,0,*4D
1493881436.02,4194,13.81,73616.3,4.21,1.75,1.85,0,*4D
1493881437.27,4195,13.81,73616.5,4.21,1.71,1.85,0,*48
1493881438.49,4196,13.81,73614.5,4.21,1.63,1.75,0,*47
1493881439.74,4197,13.81,73616.0,4.21,1.17,1.29,0,*4C
1493881440.96,4198,13.81,73616.0,4.21,1.51,1.75,0,*48
1493881442.21,4199,13.81,73614.8,4.21,1.71,1.85,0,*44
1493881443.46,4200,13.81,73614.5,4.21,1.63,1.85,0,*44
1493881444.69,4201,13.81,73614.3,4.21,1.63,1.83,0,*43
1493881445.89,4202,13.81,73616.3,4.23,1.63,1.75,0,*4B
1493881447.08,4203,13.81,73616.8,4.23,1.71,1.83,0,*40
1493881448.28,4204,13.81,73614.0,4.23,1.63,1.83,0,*44
1493881449.48,4205,13.81,73608.5,4.23,1.63,1.83,0,*45
1493881450.67,4206,13.81,73610.0,4.23,1.71,1.83,0,*45
1493881451.87,4207,13.81,73612.3,4.23,1.63,1.75,0,*4E
1493881453.1,4208,13.81,73610.3,4.25,1.51,1.59,0,*48
1493881454.32,4209,13.81,73610.0,4.23,1.59,1.71,0,*4D
1493881455.53,4210,13.88,73614.8,4.23,1.59,1.63,0,*46
1493881456.72,4211,13.88,73614.5,4.23,1.41,1.71,0,*4D
1493881457.96,4212,13.81,73610.0,4.25,1.51,1.63,0,*4A
1493881459.17,4213,13.81,73612.8,4.23,1.47,1.71,0,*49
1493881460.38,4214,13.81,73612.8,4.23,1.47,1.59,0,*44
1493881461.62,4215,13.81,73608.5,4.25,1.51,1.67,0,*49
1493881462.86,4216,13.81,73608.5,4.25,1.43,1.55,0,*48
1493881464.09,4217,13.88,73612.5,4.23,1.37,1.51,0,*48
1493881465.31,4218,13.81,73608.0,4.23,1.29,1.47,0,*4F
1493881466.53,4219,13.81,73610.8,4.23,1.37,1.47,0,*41
1493881467.76,4220,13.81,73608.8,4.23,1.37,1.47,0,*4B
1493881469.01,4221,13.81,73610.5,4.21,1.37,1.47,0,*48
1493881470.2,4222,13.81,73608.8,4.23,1.37,1.41,0,*4F
1493881471.43,4223,13.81,73610.5,4.23,1.37,1.51,0,*4F
1493881472.65,4224,13.88,73612.3,4.23,1.37,1.47,0,*4F
1493881473.88,4225,13.81,73604.5,4.23,1.37,1.47,0,*4E
1493881475.07,4226,13.81,73610.0,4.23,1.29,1.41,0,*44
1493881476.29,4227,13.88,73608.3,4.21,1.29,1.41,0,*47
1493881477.48,4228,13.81,73606.5,4.23,1.25,1.41,0,*46
1493881478.67,4229,13.81,73608.0,4.23,1.25,1.41,0,*47
1493881479.9,4230,13.81,73608.3,4.23,1.29,1.37,0,*42
1493881481.16,4231,13.81,73608.3,4.21,1.17,1.37,0,*4C
1493881482.41,4232,13.81,73610.0,4.21,1.17,1.37,0,*4F
1493881483.63,4233,13.81,73610.3,4.23,1.25,1.37,0,*4D
1493881484.86,4234,13.81,73608.0,4.23,1.25,1.37,0,*4A
1493881486.11,4235,13.81,73608.3,4.21,1.17,1.29,0,*47
1493881487.34,4236,13.81,73610.5,4.19,1.21,1.33,0,*41
1493881488.57,4237,13.81,73610.5,4.19,1.21,1.33,0,*40
1493881489.8,4238,13.81,73612.5,4.19,1.13,1.33,0,*4E
1493881491.05,4239,13.88,73614.5,4.21,1.17,1.29,0,*4B
1493881492.31,4240,13.81,73614.3,4.21,1.17,1.37,0,*4A
1493881493.54,4241,13.81,73612.8,4.19,1.13,1.33,0,*40
1493881494.76,4242,13.81,73616.0,4.19,1.21,1.25,0,*45
1493881496.02,4243,13.88,73614.8,4.21,1.17,1.29,0,*46
1493881497.27,4244,13.81,73612.0,4.21,1.25,1.37,0,*4F
1493881498.5,4245,13.81,73610.3,4.19,1.21,1.33,0,*45
1493881499.72,4246,13.81,73614.5,4.19,1.13,1.25,0,*40
1493881500.95,4247,13.81,73612.5,4.19,1.09,1.25,0,*4A
1493881502.15,4248,13.81,73610.5,4.19,1.05,1.21,0,*4D
1493881503.34,4249,13.81,73614.5,4.19,1.05,1.09,0,*46
1493881504.57,4250,13.81,73614.8,4.17,1.05,1.21,0,*4A
1493881505.8,4251,13.81,73612.3,4.13,1.01,1.09,0,*41
1493881507.01,4252,13.88,73618.8,4.13,0.95,1.01,0,*76
1493881508.22,4253,13.88,73618.8,4.17,0.95,0.97,0,*4D
1493881509.46,4254,13.81,73614.8,4.13,0.83,0.95,0,*4B
1493881510.65,4255,13.81,73612.8,4.13,1.05,1.05,0,*4D
1493881511.87,4256,13.88,73614.3,4.13,0.95,1.01,0,*72
1493881513.06,4257,13.81,73612.0,4.11,0.91,1.01,0,*75
1493881514.26,4258,13.81,73614.3,4.11,1.01,1.13,0,*41
1493881515.46,4259,13.88,73616.3,4.11,0.97,0.91,0,*45
1493881516.69,4260,13.81,73616.0,4.09,0.75,0.79,0,*4C
1493881517.92,4261,13.88,73612.3,4.09,0.97,1.13,0,*7C
1493881519.11,4262,13.81,73608.0,4.09,0.97,1.01,0,*7C
1493881520.36,4263,13.81,73612.8,4.09,0.87,0.87,0,*43
1493881521.59,4264,13.81,73612.5,4.09,0.63,0.75,0,*43
1493881522.84,4265,13.88,73614.3,4.09,0.79,0.79,0,*45
1493881524.06,4266,13.88,73610.8,4.09,0.91,1.01,0,*7E
1493881525.28,4267,13.88,73608.8,4.09,1.01,1.13,0,*44
1493881526.48,4268,13.81,73610.0,4.07,0.97,1.13,0,*7B
1493881527.71,4269,13.81,73604.0,4.07,1.09,1.25,0,*49
1493881528.96,4270,13.88,73606.5,4.05,1.09,1.25,0,*43
1493881530.16,4271,13.81,73608.8,4.07,1.01,1.25,0,*48
1493881531.39,4272,13.88,73608.8,4.05,1.01,1.21,0,*4D
1493881532.62,4273,13.88,73612.8,4.05,1.01,1.21,0,*4C
1493881533.84,4274,13.88,73612.8,4.07,1.09,1.13,0,*40
1493881535.05,4275,13.88,73610.0,4.07,1.01,1.21,0,*48
1493881536.28,4276,13.81,73612.5,4.07,1.09,1.21,0,*43
1493881537.51,4277,13.81,73608.0,4.07,1.09,1.21,0,*42
1493881538.71,4278,13.88,73616.0,4.07,1.01,1.21,0,*45
1493881539.97,4279,13.88,73616.3,4.05,1.09,1.21,0,*4E
1493881541.17,4280,13.88,73612.3,4.07,1.01,1.13,0,*43
1493881542.41,4281,13.81,73612.8,4.05,0.83,0.83,0,*43
1493881543.64,4282,13.81,73608.0,4.05,1.01,1.21,0,*42
1493881544.87,4283,13.81,73610.0,4.03,1.09,1.17,0,*48
1493881546.12,4284,13.88,73614.5,4.05,1.21,1.25,0,*42
1493881547.38,4285,13.88,73612.5,4.05,1.09,1.25,0,*49
1493881548.61,4286,13.88,73608.8,4.05,1.01,1.21,0,*46
1493881549.83,4287,13.88,73614.0,4.05,1.01,1.21,0,*47
1493881551.09,4288,13.81,73612.0,4.05,1.09,1.21,0,*40
1493881552.32,4289,13.88,73618.3,4.03,1.09,1.21,0,*47
1493881553.58,4290,13.88,73616.8,4.05,1.21,1.25,0,*47
1493881554.84,4291,13.88,73610.8,4.05,1.13,1.33,0,*40
1493881556.07,4292,13.88,73612.3,4.05,1.01,1.09,0,*49
1493881557.28,4293,13.81,73606.5,4.03,0.79,0.83,0,*43
1493881558.49,4294,13.88,73610.8,4.03,0.71,0.83,0,*4C
1493881559.68,4295,13.81,73604.0,4.03,0.95,1.05,0,*78
1493881560.87,4296,13.88,73604.5,4.03,0.97,1.17,0,*7A
1493881562.09,4297,13.88,73606.3,4.01,0.95,1.05,0,*78
1493881563.3,4298,13.88,73604.8,4.03,0.91,0.95,0,*49
1493881564.49,4299,13.88,73610.5,4.03,0.47,0.43,0,*48
1493881565.73,4300,13.88,73614.5,4.01,0.51,0.55,0,*4B
1493881566.95,4301,13.88,73608.3,4.01,0.95,1.05,0,*76
1493881568.19,4302,13.81,73604.5,4.01,0.95,1.13,0,*72
1493881569.41,4303,13.81,73608.0,3.99,0.95,1.13,0,*75
1493881570.66,4304,13.81,73610.8,3.97,0.91,1.09,0,*73
1493881571.88,4305,13.88,73608.3,3.99,0.95,1.13,0,*73
1493881573.11,4306,13.81,73610.8,4.01,1.05,1.13,0,*4E
1493881574.31,4307,13.88,73608.5,3.99,1.01,1.13,0,*4D
1493881575.52,4308,13.88,73608.5,3.99,0.67,0.87,0,*4F
1493881576.74,4309,13.88,73610.5,3.99,0.95,1.13,0,*7F
1493881577.98,4310,13.81,73606.8,3.97,0.75,0.83,0,*4F
1493881579.22,4311,13.88,73608.8,3.97,0.83,0.91,0,*44
1493881580.43,4312,13.88,73606.3,3.99,0.91,1.01,0,*72
1493881581.62,4313,13.88,73608.0,3.99,0.95,1.05,0,*73
1493881582.82,4314,13.88,73610.0,3.99,1.01,1.13,0,*4F
1493881584.08,4315,13.88,73610.8,3.97,1.09,1.21,0,*49
1493881585.31,4316,13.88,73608.0,3.97,1.01,1.13,0,*43
1493881586.53,4317,13.88,73612.8,3.97,0.97,1.13,0,*7C
1493881587.78,4318,13.88,73612.3,3.97,0.91,1.09,0,*7E
1493881588.98,4319,13.88,73612.3,3.99,0.95,1.05,0,*79
1493881590.21,4320,13.81,73608.5,3.97,0.75,0.75,0,*45
1493881591.47,4321,13.81,73606.3,3.97,0.91,1.09,0,*74
1493881592.7,4322,13.88,73612.3,3.97,0.75,0.83,0,*4E
1493881593.92,4323,13.88,73608.3,3.95,0.97,1.09,0,*72
1493881595.17,4324,13.88,73608.3,3.95,1.09,1.13,0,*48
1493881596.41,4325,13.88,73606.8,3.95,0.91,1.09,0,*72
1493881597.63,4326,13.88,73604.8,3.95,1.01,1.09,0,*49
1493881598.84,4327,13.88,73608.8,3.95,0.83,0.97,0,*45
1493881600.07,4328,13.88,73608.8,3.97,0.97,1.09,0,*7B
1493881601.29,4329,13.88,73610.0,3.95,1.01,1.09,0,*46
1493881602.53,4330,13.81,73606.3,3.95,1.09,1.13,0,*4D
1493881603.78,4331,13.88,73608.8,3.95,1.13,1.25,0,*42
1493881605.03,4332,13.88,73610.0,3.95,1.13,1.25,0,*41
1493881606.28,4333,13.88,73610.3,3.95,1.13,1.25,0,*40
1493881607.53,4334,13.88,73604.5,3.95,1.13,1.25,0,*47
1493881608.76,4335,13.88,73604.5,3.95,0.75,0.87,0,*4E
1493881610.01,4336,13.88,73614.8,3.95,1.09,1.13,0,*4B
1493881611.25,4337,13.88,73610.5,3.95,1.09,1.25,0,*4F
1493881612.5,4338,13.88,73606.3,3.95,1.09,1.21,0,*44
1493881613.75,4339,13.88,73606.3,3.95,1.09,1.37,0,*42
1493881615.01,4340,13.88,73608.0,3.95,1.13,1.13,0,*41
1493881616.26,4341,13.88,73606.8,3.95,1.21,1.37,0,*47
1493881617.5,4342,13.88,73608.5,3.95,1.09,1.13,0,*48
1493881618.75,4343,13.88,73608.5,3.95,1.21,1.43,0,*46
1493881620.0,4344,13.88,73608.3,3.97,1.33,1.47,0,*44
1493881621.26,4345,13.88,73608.0,3.97,1.25,1.37,0,*45
1493881622.51,4346,13.88,73610.0,3.97,1.09,1.25,0,*4B
1493881623.74,4347,13.88,73610.8,3.99,1.37,1.47,0,*4D
1493881625.0,4348,13.81,73606.8,3.97,1.33,1.43,0,*4C
1493881626.25,4349,13.88,73608.3,3.97,1.25,1.47,0,*4E
1493881627.5,4350,13.88,73604.8,3.97,1.37,1.47,0,*45
1493881628.73,4351,13.88,73604.5,3.99,1.33,1.59,0,*41
1493881629.98,4352,13.88,73608.0,3.97,1.37,1.47,0,*47
1493881631.21,4353,13.88,73606.5,3.99,1.37,1.59,0,*47
1493881632.44,4354,13.88,73602.8,3.99,1.37,1.51,0,*48
1493881633.68,4355,13.88,73600.0,3.99,1.37,1.51,0,*49
1493881634.91,4356,13.88,73598.0,3.99,1.37,1.51,0,*4A
1493881636.11,4357,13.88,73602.3,3.99,1.41,1.51,0,*4A
1493881637.37,4358,13.88,73600.8,4.01,1.29,1.51,0,*4D
1493881638.62,4359,13.81,73592.5,4.01,1.37,1.47,0,*44
1493881639.84,4360,13.88,73598.3,4.01,1.25,1.41,0,*4B
1493881641.09,4361,13.88,73600.3,4.01,1.25,1.37,0,*4B
1493881642.32,4362,13.88,73604.3,4.01,1.17,1.41,0,*48
1493881643.57,4363,13.88,73602.8,4.01,1.29,1.47,0,*42
1493881644.82,4364,13.88,73602.5,4.01,1.29,1.47,0,*45
1493881646.08,4365,13.88,73608.8,4.01,1.29,1.51,0,*43
1493881647.3,4366,13.88,73610.8,4.01,1.29,1.41,0,*41
1493881648.56,4367,13.88,73608.5,4.01,1.29,1.47,0,*46
1493881649.81,4368,13.88,73608.5,4.01,1.37,1.47,0,*46
1493881651.0,4369,13.88,73606.0,4.03,1.41,1.51,0,*43
1493881652.26,4370,13.88,73604.3,4.01,1.37,1.47,0,*4F
1493881653.45,4371,13.88,73604.3,4.03,1.41,1.55,0,*4E
1493881654.7,4372,13.88,73606.3,4.01,1.37,1.59,0,*42
1493881655.92,4373,13.88,73608.3,4.03,1.43,1.55,0,*4E
1493881657.15,4374,13.88,73608.8,4.03,1.33,1.55,0,*4E
1493881658.4,4375,13.88,73600.3,4.01,1.17,1.43,0,*4C
1493881659.62,4376,13.88,73606.5,4.03,1.17,1.29,0,*41
1493881660.88,4377,13.88,73606.0,4.05,1.21,1.43,0,*4F
1493881662.1,4378,13.88,73608.3,4.03,1.33,1.55,0,*42
1493881663.33,4379,13.88,73606.0,4.03,1.33,1.55,0,*43
1493881664.52,4380,13.88,73602.5,4.03,1.41,1.51,0,*44
1493881665.72,4381,13.88,73606.5,4.03,1.41,1.55,0,*41
1493881666.98,4382,13.88,73606.8,4.05,1.37,1.55,0,*45
1493881668.22,4383,13.88,73604.8,4.05,1.43,1.67,0,*46
1493881669.46,4384,13.88,73606.0,4.05,1.43,1.59,0,*4C
1493881670.7,4385,13.88,73604.0,4.05,1.43,1.59,0,*4D
1493881671.95,4386,13.88,73606.8,4.05,1.43,1.59,0,*4E
1493881673.19,4387,13.88,73604.0,4.05,1.47,1.59,0,*4B
1493881674.41,4388,13.88,73604.0,4.07,1.47,1.67,0,*4B
1493881675.65,4389,13.88,73606.5,4.05,1.43,1.55,0,*4D
1493881676.87,4390,13.88,73604.5,4.07,1.47,1.55,0,*43
1493881678.12,4391,13.88,73606.8,4.05,1.47,1.67,0,*41
1493881679.34,4392,13.88,73602.5,4.07,1.55,1.67,0,*43
1493881680.56,4393,13.88,73604.0,4.07,1.47,1.71,0,*46
1493881681.77,4394,13.88,73602.3,4.07,1.47,1.59,0,*4B
1493881683.0,4395,13.88,73606.0,4.07,1.37,1.55,0,*41
1493881684.24,4396,13.88,73606.3,4.07,1.37,1.55,0,*42
1493881685.48,4397,13.88,73602.3,4.09,1.47,1.63,0,*4F
1493881686.7,4398,13.88,73598.5,4.09,1.41,1.63,0,*46
1493881687.94,4399,13.88,73600.0,4.09,1.47,1.59,0,*48
1493881689.19,4400,13.88,73598.5,4.09,1.47,1.63,0,*46
1493881690.43,4401,13.88,73600.8,4.09,1.47,1.63,0,*47
1493881691.68,4402,13.88,73600.0,4.09,1.47,1.63,0,*44
1493881692.92,4403,13.88,73598.0,4.09,1.47,1.63,0,*45
1493881694.11,4404,13.88,73596.8,4.11,1.41,1.59,0,*44
1493881695.34,4405,13.88,73598.5,4.11,1.13,1.29,0,*45
1493881696.6,4406,13.88,73600.0,4.09,1.17,1.29,0,*4B
1493881697.85,4407,13.88,73600.5,4.09,1.17,1.29,0,*4A
1493881699.09,4408,13.88,73600.5,4.07,1.13,1.21,0,*47
1493881700.34,4409,13.88,73602.8,4.09,1.25,1.37,0,*4A
1493881701.59,4410,13.88,73606.0,4.09,1.37,1.47,0,*46
1493881702.85,4411,13.88,73606.0,4.09,1.29,1.47,0,*48
1493881704.07,4412,13.88,73600.8,4.09,1.25,1.41,0,*41
1493881705.32,4413,13.88,73602.3,4.09,1.13,1.25,0,*47
1493881706.54,4414,13.88,73604.0,4.09,1.25,1.41,0,*47
1493881707.76,4415,13.88,73604.0,4.07,1.25,1.43,0,*4A
1493881709.02,4416,13.88,73610.3,4.05,1.33,1.47,0,*48
1493881710.25,4417,13.88,73604.8,4.07,1.37,1.55,0,*4C
1493881711.44,4418,13.88,73606.5,4.11,1.41,1.51,0,*41
1493881712.69,4419,13.88,73606.0,4.09,1.17,1.25,0,*49
1493881713.95,4420,13.88,73604.5,4.09,1.37,1.51,0,*42
1493881715.2,4421,13.88,73606.5,4.09,1.47,1.63,0,*45
1493881716.42,4422,13.88,73604.5,4.09,1.59,1.75,0,*4E
1493881717.66,4423,13.88,73600.5,4.09,1.51,1.71,0,*43
1493881718.89,4424,13.88,73592.8,4.09,1.37,1.41,0,*47
1493881720.11,4425,13.88,73588.3,4.11,1.25,1.29,0,*42
1493881721.34,4426,13.88,73588.8,4.11,1.17,1.37,0,*4F
1493881722.54,4427,13.88,73596.0,4.11,1.41,1.51,0,*4D
1493881723.79,4428,13.88,73600.5,4.09,1.37,1.51,0,*4A
1493881725.05,4429,13.88,73602.3,4.09,1.37,1.51,0,*4B
1493881726.28,4430,13.88,73600.3,4.11,1.37,1.51,0,*4A
1493881727.51,4431,13.88,73600.3,4.11,1.25,1.37,0,*48
1493881728.75,4432,13.88,73604.5,4.09,1.51,1.59,0,*49
1493881729.97,4433,13.88,73606.3,4.11,1.51,1.63,0,*48
1493881731.16,4434,13.88,73606.3,4.11,1.51,1.75,0,*48
1493881732.38,4435,13.88,73604.0,4.11,1.51,1.71,0,*4D
1493881733.57,4436,13.88,73608.3,4.11,1.41,1.59,0,*45
1493881734.82,4437,13.88,73606.0,4.13,1.55,1.67,0,*4E
1493881736.04,4438,13.88,73604.8,4.13,1.63,1.79,0,*4B
1493881737.29,4439,13.88,73606.8,4.13,1.43,1.55,0,*46
1493881738.54,4440,13.88,73604.0,4.13,1.21,1.33,0,*4C
1493881739.76,4441,13.88,73606.0,4.13,1.41,1.51,0,*4F
1493881741.01,4442,13.88,73606.8,4.13,1.43,1.67,0,*4B
1493881742.25,4443,13.88,73610.5,4.13,1.55,1.67,0,*4D
1493881743.48,4444,13.88,73614.0,4.17,1.59,1.79,0,*4D
1493881744.72,4445,13.88,73612.8,4.17,1.59,1.71,0,*44
1493881745.96,4446,13.88,73608.0,4.17,1.43,1.59,0,*46